STARLINK-30309, 57632

Orbit data source: Space-Track

STARLINK-30309, 57632 is a payload satellite owned by SpaceX/Seattle (US) in LEO that was launched on Thu, 17 Aug 2023 UTC via an FALCON 9 launch vehicle from the Air Force Eastern Test Range (AFETR). Payload-class satellites include a variety of spacecraft equipped with specific instruments for various scientific and technological missions. These include communications satellites like Starlink; space stations such as the ISS; scientific satellites like the Hubble; Earth observation satellites from companies like Planet Labs, Umbra, and HawkEye 360; GPS; miniature CubeSats for education and research; and military/defense satellites.

Loading next visibility...
Identifier
57632, 2023-122A
Orbit
LEO
Country
Flag of USUS
Related business
Manufacturer
SpaceX/Seattle
Mission
Operational Commercial Communications
Bus & Motor
STARLINK V2M, Unknown motor
Mass
730 kg wet, ~700 kg dry
Launch date (UTC)
2023-08-17 (2 years ago)
Launch vehicle
FALCON 9
Launch site
Air Force Eastern Test Range (AFETR)
Object type
Payload
Rocket body
Debris
Shape & HBR
Box + 2 Pan, 14.5 m
Radar Cross Section
33.884 m², Large (>1 m²)

Expand to show TLE details & history
Last TLE update: 7 hours ago

TLE from 7 hours ago
0 STARLINK-30309
1 57632U 23122A   25243.47297005 -.00000388  00000-0 -13666-4 0  9990
2 57632  43.0040  48.6194 0001531 274.2496  85.8172 15.02534819113567
Epoch: 2025-08-31T11:21Z
TLE epoch observation values (Epoch: 2025-08-31T11:21:04.612Z)
Latitude
0.00003°
Longitude
-101.5422°
Altitude
558.784 km
Speed
7.584 km/s
True Right ascension
03h 14m 28s
True Declination
0° 00' 00"
Sunlit
Object was in daylight at epoch
Visualization orbit readout
Latitude
Unknown
Longitude
Unknown
Altitude
Unknown
Speed
Unknown
Apparent Right ascension
Unknown
Apparent Declination
Unknown
Sunlit
N/A
Visualization observer readout
Local Sidereal Time
10:21:26
Azimuth
Unknown
Elevation
Unknown
Doppler factor
Unknown
Orbital elements
Apogee altitude
562.069 km
Perigee altitude
559.944 km
Semi-major axis
6,939.143 km
Eccentricity
0.00015
Inclination
43.004°
RAAN
48.6194°
Arg. of periapsis
274.2496°
True anomaly
85.8347°
Mean anomaly
85.8172°
Eccentric anomaly
85.82595°
Mean motion
3.75478 °/min
Orbital period
95.88 mins
BSTAR
-0.000013666
Loading maneuver chart data...
Computing Atmospheric mass density...
Loading historical data...
Loading historical data...
Loading historical data...
Loading historical data...
Loading historical data...
Loading historical data...
Loading historical data...

Documentation

Showing up to 5 results
|